Lid_Strength_Index
8 11 13 13 12 11 11 13 14 13 12 12 13 13 13 11 12 13 12 13 12 12 11 11 11 11 11 12 11 9 10 10 10 11 12 13 13 13 13 13 12 12 12 12
11 13 10 10 10 11 12 13 13 11 10 12 13 14 13 12 12 11 12 12 12 13 13 12 12 12 12 12 12 11 10 10 10 11 12 12 13 13 13 13 13 12 12 12
13 11 9 10 11 12 12 13 13 13 12 11 13 15 14 13 12 12 12 11 11 12 12 12 12 12 13 13 12 12 10 10 11 11 12 13 13 14 14 14 14 13 13 12
12 9 10 11 12 11 14 10 11 12 14 17 12 19 14 13 13 12 11 12 12 11 11 12 12 13 13 13 13 12 10 10 11 11 12 13 15 15 15 14 14 14 13 13
13 12 12 12 11 10 13 9 11 12 14 15 15 18 15 13 13 12 11 11 11 11 11 12 12 12 12 12 12 12 11 11 11 12 12 14 15 14 14 15 15 15 14 14
11 8 10 10 9 9 9 12 13 13 15 19 15 17 16 14 13 12 11 11 10 11 11 12 12 12 13 13 13 13 12 12 13 13 14 14 15 15 16 16 16 16 15 15
12 12 10 9 13 11 12 14 19 21 20 21 14 17 15 13 11 11 11 10 9 9 10 12 13 13 13 13 14 14 13 14 14 14 15 15 15 15 16 16 16 16 16 16
16 19 12 10 12 14 13 14 18 23 23 19 15 19 15 10 9 9 10 12 11 11 11 12 13 13 13 14 14 14 14 15 15 15 15 15 15 16 16 16 16 16 17 16
16 16 11 10 9 10 14 16 13 18 23 20 18 15 12 11 13 13 14 11 11 12 13 13 13 13 14 14 14 15 15 16 16 16 16 16 16 16 17 16 16 16 16 16
13 17 12 11 10 10 13 11 17 16 22 22 19 19 17 14 15 13 15 13 13 13 13 13 14 14 14 14 15 15 16 16 16 16 16 16 17 17 18 19 18 18 18 16
11 14 16 12 14 15 14 15 14 15 16 20 22 19 15 14 18 17 17 15 14 14 14 14 14 15 16 17 17 17 18 18 18 17 18 17 18 18 19 20 21 22 23 22
11 14 18 16 12 12 12 13 14 18 21 20 20 17 17 22 23 18 16 15 15 15 15 16 17 17 17 18 19 20 20 19 19 19 18 19 18 19 22 23 24 23 22 23
11 14 18 19 15 12 14 13 13 14 16 17 20 18 21 16 16 15 18 17 16 16 17 18 19 19 19 19 20 21 21 20 20 20 20 20 21 20 23 24 23 22 20 21
9 13 16 20 17 15 17 15 13 14 17 17 16 15 20 18 20 19 16 15 16 16 17 19 20 21 20 19 20 21 21 21 21 21 21 21 22 21 22 21 21 20 21 21
10 15 17 15 17 17 17 15 14 15 14 17 16 16 18 17 20 19 20 17 16 16 17 18 18 19 21 20 20 20 21 21 21 22 22 22 23 24 24 24 25 24 23 21
10 16 17 18 17 20 20 18 15 14 14 14 14 14 14 16 19 17 19 20 17 16 19 19 18 19 20 21 22 21 21 21 22 22 23 23 23 24 24 24 25 24 24 24
12 15 17 20 19 17 22 20 18 17 13 14 16 16 15 15 15 14 15 17 17 17 17 17 18 18 19 20 19 21 22 22 22 22 22 21 20 20 21 21 22 22 24 23
14 15 14 17 19 24 19 21 18 16 16 17 16 16 15 13 13 13 17 17 16 17 18 18 18 18 19 20 20 19 19 20 21 21 20 20 20 20 20 20 21 21 20 18
11 13 16 18 20 17 17 19 20 18 18 19 19 18 17 14 14 14 14 13 13 14 16 17 19 20 20 20 19 19 19 19 19 20 20 20 20 21 20 20 21 21 20 20
11 12 14 18 21 23 18 18 16 16 21 19 20 20 20 16 16 16 17 16 16 16 17 18 19 19 19 20 18 18 19 19 19 19 20 20 20 20 20 20 19 19 19 18
17 14 16 16 18 19 17 15 14 19 19 20 20 20 18 17 19 19 17 18 18 18 18 18 19 19 19 19 18 18 19 20 19 20 20 20 20 20 20 20 19 19 19 18
16 18 19 17 19 21 14 14 17 16 16 18 18 21 19 19 17 19 19 19 18 18 18 18 18 18 18 17 17 18 19 20 20 21 21 21 21 21 20 21 20 21 21 19
17 15 17 15 16 13 14 15 14 16 17 17 16 17 16 17 18 18 19 18 18 18 18 17 18 18 19 19 18 19 20 20 22 22 23 23 22 20 20 22 21 22 20 18
14 13 14 14 13 13 14 13 14 15 14 14 14 15 15 16 17 18 17 18 18 18 18 18 19 20 20 20 20 20 20 22 23 23 22 22 22 21 22 19 19 21 23 21
14 14 15 13 13 13 13 14 14 14 15 14 14 16 15 15 16 17 17 18 18 18 19 19 20 20 21 21 21 22 21 23 23 23 22 22 21 22 22 20 21 20 20 20
13 15 17 17 15 15 14 14 15 15 15 15 15 15 15 15 15 16 17 17 18 19 19 20 20 20 21 21 21 22 23 23 24 22 21 21 22 23 22 23 23 18 16 15